International Falls, MN

2:03 PM CDT on August 22, 2017 (GMT -0500)
Falls International

Weather History for KINL - January, 2014

Change the Weather History Date:

Thursday, January 2, 2014

  Actual Average Record
Temperature  
Mean Temperature -23 °F 5 °F  
Max Temperature -4 °F 15 °F 37 °F (1997)
Min Temperature -43 °F -6 °F -43 °F (2014)
Degree Days  
Heating Degree Days 88 60  
Month to date heating degree days 178 120  
Since 1 July heating degree days 4673 4295  
Cooling Degree Days 0 0  
Month to date cooling degree days 0 0  
Year to date cooling degree days 0 0  
Moisture  
Dew Point -25 °F    
Average Humidity 64    
Maximum Humidity 77    
Minimum Humidity 50    
Precipitation  
Precipitation T in 0.03 in 6.01 in (1907)
Month to date precipitation T 0.05  
Year to date precipitation T 0.05  
Snow  
Snow T in 0.50 in 5.80 in (1966)
Month to date snowfall T 1.0  
Since 1 July snowfall 37.3 32.0  
Snow Depth 12.00 in    
Sea Level Pressure  
Sea Level Pressure 30.54 in    
Wind  
Wind Speed 1 mph (SSE)    
Max Wind Speed 6 mph    
Max Gust Speed 9 mph    
Visibility 9 miles    
Events      
T = Trace of Precipitation, MM = Missing Value Source: NWS Daily Summary

Daily Weather History Graph

Daily Weather History Graph

Search for Another Location

Airport or City:

Trip Planner

Search our weather history database for the weather conditions in past years. The results will help you decide how hot, cold, wet, or windy it might be!

Date:

Astronomy

Jan. 02, 2014 Rise Set
Actual Time 8:05 AM CST 4:29 PM CST
Civil Twilight 7:29 AM CST 5:06 PM CST
Nautical Twilight 6:49 AM CST 5:46 PM CST
Astronomical Twilight 6:11 AM CST 6:24 PM CST
Moon 8:37 AM CST (1/2) 6:39 PM CST (1/2)
Length of Visible Light 9h 37m
Length of Day
8h 24m
Waxing Crescent, 3% of the Moon is Illuminated
Jan 2
Waxing Crescent
Jan 7
First Quarter
Jan 15
Full
Jan 23
Last Quarter
Jan 30
New

Hourly Weather History & Observations

Time (CST) Temp. Windchill Dew Point Humidity Pressure Visibility Wind Dir Wind Speed Gust Speed Precip Events Conditions
12:55 AM -38.9 °F - - N/A% 30.59 in 5.0 mi Calm Calm - N/A   Haze
1:55 AM -38.9 °F - - N/A% 30.59 in 8.0 mi Calm Calm - N/A   Clear
2:55 AM -40.0 °F - - N/A% 30.60 in 10.0 mi Calm Calm - N/A   Clear
3:55 AM -40.0 °F - - N/A% 30.59 in 8.0 mi Calm Calm - N/A   Clear
4:55 AM -42.0 °F - - N/A% 30.60 in 8.0 mi Calm Calm - N/A   Clear
5:55 AM -42.0 °F - - N/A% 30.62 in 9.0 mi Calm Calm - N/A   Clear
6:55 AM -41.1 °F - - N/A% 30.63 in 9.0 mi Calm Calm - N/A   Clear
7:55 AM -42.0 °F - - N/A% 30.63 in 5.0 mi Calm Calm - N/A   Haze
8:55 AM -38.9 °F - - N/A% 30.62 in 6.0 mi Calm Calm - N/A   Haze
9:55 AM -29.9 °F - - N/A% 30.63 in 7.0 mi Calm Calm - N/A   Clear
10:55 AM -18.0 °F - -26.0 °F 67% 30.62 in 10.0 mi Calm Calm - N/A   Clear
11:55 AM -11.9 °F - -20.0 °F 67% 30.59 in 10.0 mi Calm Calm - N/A   Clear
12:55 PM -6.0 °F -14.7 °F -18.9 °F 54% 30.56 in 10.0 mi WSW 3.5 mph - N/A   Clear
1:55 PM -6.0 °F - -18.9 °F 54% 30.54 in 10.0 mi Calm Calm - N/A   Clear
2:55 PM -4.0 °F -14.6 °F -18.9 °F 49% 30.54 in 10.0 mi Variable 4.6 mph - N/A   Clear
3:55 PM -7.1 °F - -18.9 °F 56% 30.53 in 10.0 mi Calm Calm - N/A   Clear
4:55 PM -15.0 °F - -22.0 °F 71% 30.54 in 10.0 mi Calm Calm - N/A   Clear
5:55 PM -23.1 °F - -29.0 °F 74% 30.52 in 10.0 mi Calm Calm - N/A   Clear
6:55 PM -27.0 °F - -33.0 °F 73% 30.49 in 10.0 mi Calm Calm - N/A   Clear
7:55 PM -27.0 °F -38.7 °F -33.0 °F 73% 30.48 in 10.0 mi SSE 3.5 mph - N/A   Clear
8:55 PM -27.9 °F -39.8 °F -35.0 °F 69% 30.44 in 10.0 mi SSE 3.5 mph - N/A   Clear
9:55 PM -20.0 °F -30.7 °F -26.0 °F 74% 30.38 in 10.0 mi SE 3.5 mph - N/A   Clear
10:55 PM -20.0 °F - -27.0 °F 70% 30.34 in 10.0 mi Calm Calm - N/A   Clear
11:55 PM -13.0 °F -22.7 °F -22.0 °F 64% 30.29 in 10.0 mi South 3.5 mph - N/A   Clear